Location: Cormont
(50.5693°N, 1.7416°E)
Time: 10:55:59
(UTC+00:00)

STARLINK-25 - Visible Passes

Search period start: 21 January 2020 00:00
Search period end: 31 January 2020 00:00
Orbit: 529 x 531 km, 53.0° (Epoch: 21 January)

Date Brightness Start Highest point End Pass type
(mag) Time Alt. Az. Time Alt. Az. Time Alt. Az.
21 Jan 4.9 05:45:54 12° SSW 05:49:20 37° SE 05:53:04 10° ENE visible
22 Jan 4.6 05:34:31 21° SSW 05:36:44 41° SSE 05:40:33 10° ENE visible
23 Jan 4.4 05:21:27 35° SSW 05:22:35 46° SSE 05:26:28 10° ENE visible
23 Jan 3.6 06:57:26 10° W 07:01:28 70° NNW 07:05:30 10° ENE visible
24 Jan 4.1 05:06:44 49° SSE 05:06:53 50° SSE 05:10:48 10° ENE visible
24 Jan 3.6 06:41:42 10° W 06:45:42 67° N 06:49:43 10° ENE visible
25 Jan 4.5 04:50:24 45° ESE 04:50:24 45° ESE 04:53:35 10° ENE visible
25 Jan 3.6 06:25:16 16° W 06:28:22 66° N 06:32:24 10° ENE visible
26 Jan 5.3 04:32:30 31° E 04:32:30 31° E 04:34:49 10° ENE visible
26 Jan 3.6 06:07:16 25° W 06:09:31 65° N 06:13:32 10° ENE visible
27 Jan 6.0 04:13:04 21° E 04:13:04 21° E 04:14:30 10° ENE visible
27 Jan 3.6 05:47:43 38° WNW 05:49:06 65° N 05:53:08 10° ENE visible
28 Jan 6.6 03:52:07 13° ENE 03:52:07 13° ENE 03:52:40 10° ENE visible
28 Jan 3.5 05:26:40 58° NW 05:27:09 65° N 05:31:11 10° ENE visible
29 Jan 3.8 05:04:06 60° NNE 05:04:06 60° NNE 05:07:42 10° ENE visible
29 Jan 3.7 06:38:33 12° WNW 06:42:16 69° N 06:46:18 10° E visible
30 Jan 4.9 04:40:03 38° ENE 04:40:03 38° ENE 04:42:41 10° ENE visible
30 Jan 3.7 06:14:24 19° WNW 06:17:09 68° NNE 06:21:11 10° E visible
